Home   Weather   Kranj   Past weeks

Flag for Slovenia Past Weather in Kranj, Slovenia — Yesterday and Last 2 Weeks

Now
46 °F

Partly sunny.


Feels Like: 46 °F
Forecast: 46 / 70 °F
Wind: No wind

Location: Ljubljana Airport / Brnik

Current Time: Sep 29, 2016 at 8:47:08 AM

Latest Report: Sep 29, 2016 at 8:00 AM


Visibility: N/A

Pressure: 30.36 "Hg

Humidity: 93%

Dew Point: 45 °F

Location of KranjLocation

Past Weather in Kranj — Graph

°F

Kranj Temperature Yesterday

Maximum temperature yesterday: 70 °F (at 1:30 PM)
Minimum temperature yesterday: 41 °F (at 7:30 AM)
Average temperature yesterday: 55 °F

High & Low Weather Summary for the Past Weeks

 TemperatureHumidityPressure
High81 °F (Sep 14, 2:00 PM)100% (Sep 14, 7:00 AM)30.45 "Hg (Sep 14, 7:00 AM)
Low39 °F (Sep 22, 6:30 AM)35% (Sep 25, 3:30 PM)29.77 "Hg (Sep 19, 5:30 PM)
Average58 °F82%30.10 "Hg
* Reported Sep 14 7:00 AM — Sep 29 7:30 AM, Kranj, Weather by CustomWeather, © 2016

Note: Actual official high and low records may vary slightly from our data, if they occured in-between our weather recording intervals... More about our weather records

Advertising

Kranj Weather History for the Previous 24 Hours

Scroll right to see more
 ConditionsComfort  
Time TempWeatherWind HumidityBarometerVisibility
7:30 AM
Thu, Sep 29
45 °FPartly sunny.No wind93%30.36 "HgN/A
7:00 AM45 °FPartly sunny.No wind93%30.33 "HgN/A
6:30 AM45 °FPassing clouds.2 mph100%30.33 "HgN/A
6:00 AM45 °FPassing clouds.No wind93%30.36 "HgN/A
5:30 AM45 °FPassing clouds.1 mph100%30.36 "HgN/A
5:00 AM45 °FClear.1 mph100%30.36 "Hg10 mi
4:30 AM46 °FClear.No wind93%30.36 "Hg10 mi
4:00 AM46 °FClear.No wind93%30.36 "Hg10 mi
3:30 AM46 °FClear.No wind93%30.36 "Hg10 mi
3:00 AM46 °FClear.1 mph93%30.36 "Hg10 mi
2:30 AM46 °FClear.No wind100%30.39 "Hg10 mi
2:00 AM48 °FClear.No wind94%30.39 "Hg10 mi
1:30 AM48 °FClear.No wind94%30.39 "Hg10 mi
1:00 AM48 °FClear.No wind94%30.39 "Hg10 mi
12:30 AM50 °FClear.1 mph88%30.39 "Hg10 mi
12:00 AM50 °FClear.2 mph94%30.39 "Hg10 mi
11:30 PM
Wed, Sep 28
50 °FClear.1 mph94%30.39 "Hg10 mi
11:00 PM50 °FClear.No wind94%30.39 "Hg10 mi
10:30 PM52 °FClear.No wind94%30.39 "Hg10 mi
10:00 PM52 °FClear.No wind94%30.39 "Hg10 mi
9:30 PM52 °FClear.No wind94%30.36 "Hg10 mi
9:00 PM54 °FClear.No wind88%30.36 "Hg10 mi
8:30 PM54 °FClear.2 mph88%30.36 "Hg10 mi
8:00 PM55 °FClear.2 mph88%30.36 "Hg10 mi
7:30 PM57 °FClear.No wind82%30.36 "Hg10 mi
7:00 PM61 °FClear.No wind77%30.36 "Hg10 mi
6:30 PM63 °FSunny.No wind73%30.36 "Hg10 mi
6:00 PM66 °FSunny.2 mph64%30.36 "Hg10 mi
5:30 PM68 °FPassing clouds.2 mph56%30.33 "HgN/A
5:00 PM70 °FPassing clouds.3 mph50%30.33 "HgN/A
4:30 PM70 °FPassing clouds.2 mph50%30.36 "HgN/A
4:00 PM70 °FScattered clouds.3 mph50%30.36 "HgN/A
3:30 PM70 °FPartly sunny.3 mph50%30.36 "HgN/A
3:00 PM68 °FPartly sunny.2 mph49%30.39 "HgN/A
2:30 PM70 °FPartly sunny.1 mph50%30.39 "HgN/A
2:00 PM68 °FPartly sunny.5 mph53%30.39 "HgN/A
1:30 PM70 °FPartly sunny.2 mph50%30.42 "HgN/A
1:00 PM68 °FPartly sunny.3 mph53%30.42 "HgN/A
12:30 PM66 °FScattered clouds.2 mph64%30.42 "HgN/A
12:00 PM64 °FScattered clouds.2 mph60%30.42 "HgN/A
11:30 AM63 °FPassing clouds.1 mph68%30.45 "HgN/A
11:00 AM61 °FPassing clouds.1 mph68%30.45 "HgN/A
10:30 AM57 °FPassing clouds.2 mph77%30.45 "HgN/A
10:00 AM55 °FPassing clouds.2 mph82%30.45 "HgN/A
9:30 AM54 °FPassing clouds.No wind82%30.42 "HgN/A
9:00 AM50 °FPassing clouds.1 mph94%30.42 "HgN/A
8:30 AM46 °FScattered clouds.No wind100%30.42 "Hg5 mi
8:00 AM43 °FQuite cool.No wind100%30.42 "Hg5 mi
Weather by CustomWeather, © 2016

See weather overviewHow to use our weather pages